ISS DEB (52329 NORAD) Tracking and Keplerian Element Data

This shows tracking and keplerian element data for the satellite.

Feedback or suggestion? Click here.




ElementValue
Catalog52329
NameISS DEB
Epoch Orbit1
Epoch Day162.77458517
Epoch Year2022
RAAN0.4847
Inclination51.6384
Eccentricity0.0015341
Argument of Perigee251.3462
Mean Anonmoly108.5873
Mean Motion15.68673457
Decay Rate0.00269488
L11 52329U 98067TM 22162.77458517 .00269488 00000+0 22361-2 0 9990
L22 52329 51.6384 0.4847 0015341 251.3462 108.5873 15.68673457 15

Live tracking and technical data element details for ISS DEB (NORAD 52329). ISS DEB can be tracked NOW for your location showing map with azimuth and elevation plus other details from your city location.

Track the satellite on the map from your city or location and see movement details for azimuth, elevation, latitude, longitude, range, height, and movement on the map or in text.







IsCatalogInMostPopularTable: catalog: 52329, numindb: 50
Update: records affected: 1



GetName: 52329 ISS DEB

Hit Count: updated at: Mon, 27 Jun 2022 05:47:03 GMT